• In Hungary
  • List of Countries
  • For 7 days
  • Water Temperature
  • Satellite Maps
  • Weather Map
  • News
  • Weather Widgets
  • user-avatar
    Login

    Hourly Weather La Paz

    Today, 25 May, Friday

    Time Temperature Precipitation Wind Pressure Humidity
    00:00 +3°C° 0 mm 1 mps 473 mmHg 67%
    01:00 +3°C° 0 mm 1 mps 473 mmHg 63%
    02:00 +3°C° 0 mm 1 mps 473 mmHg 62%
    03:00 +2°C° 0 mm 1 mps 472 mmHg 61%
    04:00 +2°C° 0 mm 1 mps 472 mmHg 60%
    05:00 +3°C° 0 mm 1 mps 473 mmHg 57%
    06:00 +5°C° 0 mm 1 mps 475 mmHg 54%
    07:00 +6°C° 0 mm 1 mps 476 mmHg 52%
    08:00 +8°C° 0 mm 1 mps 477 mmHg 50%
    09:00 +9°C° 0 mm 1 mps 478 mmHg 48%
    10:00 +10°C° 0 mm 2 mps 479 mmHg 46%
    11:00 +10°C° 0 mm 2 mps 478 mmHg 48%
    12:00 +10°C° 0 mm 2 mps 478 mmHg 50%
    13:00 +11°C° 0 mm 3 mps 478 mmHg 52%
    14:00 +10°C° 0.1 mm 3 mps 477 mmHg 56%
    15:00 +10°C° 0.1 mm 3 mps 476 mmHg 60%
    16:00 +9°C° 0.1 mm 3 mps 476 mmHg 65%
    17:00 +8°C° 0 mm 2 mps 475 mmHg 72%
    18:00 +6°C° 0 mm 2 mps 475 mmHg 80%
    19:00 +6°C° 0 mm 1 mps 474 mmHg 87%
    20:00 +5°C° 0 mm 1 mps 474 mmHg 87%
    21:00 +5°C° 0 mm 1 mps 474 mmHg 88%
    22:00 +4°C° 0 mm 1 mps 474 mmHg 88%
    23:00 +4°C° 0 mm 1 mps 473 mmHg 88%

    Tomorrow, 26 May, Saturday

    Time Temperature Precipitation Wind Pressure Humidity
    00:00 +4°C° 0 mm 1 mps 473 mmHg 88%
    01:00 +2°C° 0 mm 0 mps 473 mmHg 88%
    02:00 +2°C° 0 mm 0 mps 472 mmHg 88%
    03:00 +1°C° 0 mm 0 mps 472 mmHg 87%
    04:00 +1°C° 0 mm 0 mps 471 mmHg 87%
    05:00 +2°C° 0 mm 0 mps 473 mmHg 81%
    06:00 +3°C° 0 mm 0 mps 474 mmHg 75%
    07:00 +4°C° 0 mm 0 mps 475 mmHg 69%
    08:00 +7°C° 0 mm 1 mps 476 mmHg 61%
    09:00 +9°C° 0 mm 1 mps 477 mmHg 52%
    10:00 +11°C° 0 mm 1 mps 478 mmHg 44%
    11:00 +10°C° 0 mm 2 mps 478 mmHg 45%
    12:00 +10°C° 0 mm 2 mps 477 mmHg 46%
    13:00 +12°C° 0 mm 2 mps 477 mmHg 47%
    14:00 +10°C° 0.1 mm 3 mps 476 mmHg 50%
    15:00 +10°C° 0.1 mm 3 mps 476 mmHg 54%
    16:00 +9°C° 0.1 mm 3 mps 475 mmHg 57%
    17:00 +8°C° 0 mm 2 mps 475 mmHg 65%
    18:00 +7°C° 0 mm 2 mps 474 mmHg 73%
    19:00 +6°C° 0 mm 1 mps 474 mmHg 81%
    20:00 +6°C° 0 mm 1 mps 473 mmHg 80%
    21:00 +5°C° 0 mm 1 mps 473 mmHg 79%
    22:00 +4°C° 0 mm 1 mps 473 mmHg 78%
    23:00 +4°C° 0 mm 1 mps 473 mmHg 75%

    Day after tomorrow, 27 May, Sunday

    Time Temperature Precipitation Wind Pressure Humidity
    00:00 +3°C° 0 mm 0 mps 472 mmHg 73%
    01:00 +2°C° 0 mm 0 mps 472 mmHg 70%
    02:00 +2°C° 0 mm 0 mps 472 mmHg 70%
    03:00 +2°C° 0 mm 0 mps 471 mmHg 70%
    04:00 +1°C° 0 mm 0 mps 471 mmHg 70%
    05:00 +3°C° 0 mm 0 mps 472 mmHg 65%
    06:00 +4°C° 0 mm 0 mps 474 mmHg 60%
    07:00 +5°C° 0 mm 0 mps 475 mmHg 55%
    08:00 +8°C° 0 mm 1 mps 476 mmHg 52%
    09:00 +8°C° 0 mm 2 mps 477 mmHg 49%
    10:00 +10°C° 0 mm 2 mps 478 mmHg 47%
    11:00 +10°C° 0.1 mm 3 mps 477 mmHg 51%
    12:00 +10°C° 0.1 mm 3 mps 477 mmHg 55%
    13:00 +10°C° 0.1 mm 3 mps 476 mmHg 59%
    14:00 +9°C° 0.1 mm 3 mps 476 mmHg 62%
    15:00 +9°C° 0.1 mm 3 mps 475 mmHg 65%
    16:00 +7°C° 0.1 mm 4 mps 475 mmHg 68%
    17:00 +7°C° 0 mm 3 mps 475 mmHg 75%
    18:00 +5°C° 0 mm 3 mps 475 mmHg 82%
    19:00 +5°C° 0 mm 2 mps 474 mmHg 88%
    20:00 +4°C° 0 mm 2 mps 475 mmHg 89%
    21:00 +4°C° 0 mm 2 mps 475 mmHg 89%
    22:00 +5°C° 0 mm 1 mps 475 mmHg 89%
    23:00 +4°C° 0 mm 1 mps 474 mmHg 89%

    28 May, Monday

    Time Temperature Precipitation Wind Pressure Humidity
    00:00 +4°C° 0 mm 1 mps 474 mmHg 89%
    01:00 +4°C° 0 mm 1 mps 474 mmHg 89%
    02:00 +4°C° 0 mm 1 mps 473 mmHg 88%
    03:00 +3°C° 0 mm 1 mps 473 mmHg 88%
    04:00 +3°C° 0 mm 1 mps 473 mmHg 87%
    05:00 +4°C° 0 mm 1 mps 474 mmHg 83%
    06:00 +4°C° 0 mm 1 mps 475 mmHg 79%
    07:00 +5°C° 0 mm 1 mps 476 mmHg 75%
    08:00 +7°C° 0 mm 1 mps 476 mmHg 68%
    09:00 +7°C° 0 mm 2 mps 477 mmHg 61%
    10:00 +9°C° 0 mm 2 mps 478 mmHg 53%
    11:00 +9°C° 0 mm 2 mps 478 mmHg 50%
    12:00 +10°C° 0 mm 2 mps 478 mmHg 46%
    13:00 +11°C° 0 mm 3 mps 478 mmHg 42%
    14:00 +12°C° 0 mm 2 mps 477 mmHg 44%
    15:00 +10°C° 0 mm 2 mps 476 mmHg 45%
    16:00 +10°C° 0 mm 2 mps 476 mmHg 46%
    17:00 +8°C° 0 mm 2 mps 475 mmHg 53%
    18:00 +8°C° 0 mm 1 mps 475 mmHg 59%
    19:00 +6°C° 0 mm 1 mps 474 mmHg 66%
    20:00 +5°C° 0 mm 1 mps 474 mmHg 60%
    21:00 +4°C° 0 mm 2 mps 474 mmHg 55%
    22:00 +3°C° 0 mm 2 mps 474 mmHg 49%
    23:00 +3°C° 0 mm 2 mps 473 mmHg 45%

    29 May, Tuesday

    Time Temperature Precipitation Wind Pressure Humidity
    00:00 +2°C° 0 mm 2 mps 472 mmHg 42%
    01:00 +1°C° 0 mm 2 mps 472 mmHg 38%
    02:00 +1°C° 0 mm 2 mps 472 mmHg 37%
    03:00 +1°C° 0 mm 2 mps 471 mmHg 36%
    04:00 +1°C° 0 mm 2 mps 471 mmHg 35%
    05:00 +2°C° 0 mm 2 mps 472 mmHg 33%
    06:00 +3°C° 0 mm 2 mps 474 mmHg 31%
    07:00 +4°C° 0 mm 2 mps 475 mmHg 30%
    08:00 +6°C° 0 mm 2 mps 476 mmHg 27%
    09:00 +8°C° 0 mm 2 mps 477 mmHg 24%
    10:00 +10°C° 0 mm 2 mps 478 mmHg 21%
    11:00 +10°C° 0 mm 3 mps 478 mmHg 21%
    12:00 +11°C° 0 mm 3 mps 478 mmHg 21%
    13:00 +12°C° 0 mm 3 mps 477 mmHg 21%
    14:00 +11°C° 0 mm 3 mps 477 mmHg 24%
    15:00 +12°C° 0 mm 2 mps 476 mmHg 27%
    16:00 +10°C° 0 mm 2 mps 475 mmHg 29%
    17:00 +8°C° 0 mm 2 mps 474 mmHg 31%
    18:00 +7°C° 0 mm 1 mps 473 mmHg 33%
    19:00 +5°C° 0 mm 1 mps 472 mmHg 36%
    20:00 +4°C° 0 mm 1 mps 472 mmHg 32%
    21:00 +4°C° 0 mm 1 mps 472 mmHg 29%
    22:00 +3°C° 0 mm 2 mps 472 mmHg 26%
    23:00 +2°C° 0 mm 2 mps 472 mmHg 28%

    30 May, Wednesday

    Time Temperature Precipitation Wind Pressure Humidity
    00:00 +2°C° 0 mm 2 mps 471 mmHg 30%
    01:00 +1°C° 0 mm 2 mps 471 mmHg 33%
    02:00 +1°C° 0 mm 2 mps 470 mmHg 34%
    03:00 -1°C° 0 mm 2 mps 470 mmHg 35%
    04:00 -1°C° 0 mm 2 mps 470 mmHg 36%
    05:00 +1°C° 0 mm 2 mps 471 mmHg 34%
    06:00 +2°C° 0 mm 2 mps 473 mmHg 32%
    07:00 +4°C° 0 mm 2 mps 474 mmHg 30%
    08:00 +6°C° 0 mm 2 mps 475 mmHg 27%
    09:00 +8°C° 0 mm 2 mps 476 mmHg 24%
    10:00 +10°C° 0 mm 2 mps 477 mmHg 21%
    11:00 +11°C° 0 mm 3 mps 477 mmHg 21%
    12:00 +11°C° 0 mm 3 mps 477 mmHg 22%
    13:00 +12°C° 0 mm 3 mps 477 mmHg 22%
    14:00 +11°C° 0 mm 3 mps 476 mmHg 25%
    15:00 +10°C° 0 mm 2 mps 475 mmHg 28%
    16:00 +10°C° 0 mm 2 mps 475 mmHg 31%
    17:00 +7°C° 0 mm 2 mps 474 mmHg 39%
    18:00 +6°C° 0 mm 1 mps 473 mmHg 47%
    19:00 +4°C° 0 mm 1 mps 472 mmHg 54%
    20:00 +3°C° 0 mm 1 mps 471 mmHg 49%
    21:00 +3°C° 0 mm 1 mps 471 mmHg 43%
    22:00 +2°C° 0 mm 1 mps 471 mmHg 38%
    23:00 +2°C° 0 mm 1 mps 471 mmHg 32%
    Show more